• In Uzbekistan
  • List of Countries
  • For 7 days
  • Water Temperature
  • Satellite Maps
  • Weather Map
  • Weather Widgets
  • user-avatar
    Login

    Hourly Weather San Miguel de Tucumán

    Today, 27 March, Monday

    Time Temperature Precipitation Wind Pressure Humidity
    00:00 +21°C° 0.5 mm 0 mps 719 mmHg 92%
    01:00 +21°C° 0.5 mm 0 mps 719 mmHg 92%
    02:00 +21°C° 0.5 mm 0 mps 719 mmHg 92%
    03:00 +20°C° 0.2 mm 0 mps 718 mmHg 92%
    04:00 +20°C° 0.2 mm 0 mps 718 mmHg 92%
    05:00 +20°C° 0.2 mm 0 mps 718 mmHg 92%
    06:00 +23°C° 0.4 mm 1 mps 719 mmHg 88%
    07:00 +25°C° 0.4 mm 1 mps 719 mmHg 85%
    08:00 +26°C° 0.4 mm 1 mps 720 mmHg 82%
    09:00 +28°C° 0.1 mm 1 mps 720 mmHg 75%
    10:00 +29°C° 0.1 mm 2 mps 720 mmHg 68%
    11:00 +31°C° 0.1 mm 2 mps 720 mmHg 62%
    12:00 +31°C° 0.8 mm 2 mps 719 mmHg 61%
    13:00 +33°C° 0.8 mm 3 mps 719 mmHg 61%
    14:00 +33°C° 0.8 mm 3 mps 718 mmHg 61%
    15:00 +31°C° 0.8 mm 3 mps 718 mmHg 64%
    16:00 +31°C° 0.8 mm 3 mps 718 mmHg 67%
    17:00 +30°C° 0.8 mm 3 mps 717 mmHg 71%
    18:00 +28°C° 1.8 mm 2 mps 718 mmHg 77%
    19:00 +27°C° 1.8 mm 2 mps 719 mmHg 84%
    20:00 +25°C° 1.8 mm 1 mps 719 mmHg 90%
    21:00 +24°C° 1.4 mm 1 mps 720 mmHg 91%
    22:00 +24°C° 1.4 mm 1 mps 720 mmHg 92%
    23:00 +24°C° 1.4 mm 1 mps 721 mmHg 93%

    Tomorrow, 28 March, Tuesday

    Time Temperature Precipitation Wind Pressure Humidity
    00:00 +23°C° 0.1 mm 1 mps 720 mmHg 93%
    01:00 +23°C° 0.1 mm 1 mps 720 mmHg 93%
    02:00 +23°C° 0.1 mm 1 mps 720 mmHg 93%
    03:00 +23°C° 0.1 mm 1 mps 720 mmHg 93%
    04:00 +22°C° 0.1 mm 1 mps 720 mmHg 94%
    05:00 +22°C° 0.1 mm 1 mps 720 mmHg 95%
    06:00 +23°C° 0.3 mm 1 mps 720 mmHg 92%
    07:00 +24°C° 0.3 mm 1 mps 721 mmHg 89%
    08:00 +26°C° 0.3 mm 1 mps 721 mmHg 86%
    09:00 +27°C° 0 mm 1 mps 721 mmHg 79%
    10:00 +29°C° 0 mm 2 mps 721 mmHg 72%
    11:00 +30°C° 0 mm 2 mps 721 mmHg 65%
    12:00 +31°C° 1.2 mm 3 mps 720 mmHg 65%
    13:00 +31°C° 1.2 mm 3 mps 719 mmHg 65%
    14:00 +33°C° 1.2 mm 4 mps 718 mmHg 65%
    15:00 +32°C° 1.4 mm 4 mps 718 mmHg 67%
    16:00 +31°C° 1.4 mm 3 mps 718 mmHg 69%
    17:00 +30°C° 1.4 mm 3 mps 717 mmHg 71%
    18:00 +28°C° 2.6 mm 3 mps 718 mmHg 78%
    19:00 +27°C° 2.6 mm 3 mps 718 mmHg 85%
    20:00 +25°C° 2.6 mm 2 mps 719 mmHg 92%
    21:00 +25°C° 2 mm 2 mps 719 mmHg 92%
    22:00 +25°C° 2 mm 2 mps 719 mmHg 92%
    23:00 +24°C° 2 mm 2 mps 720 mmHg 92%

    Day after tomorrow, 29 March, Wednesday

    Time Temperature Precipitation Wind Pressure Humidity
    00:00 +24°C° 0.9 mm 2 mps 719 mmHg 92%
    01:00 +24°C° 0.9 mm 2 mps 719 mmHg 93%
    02:00 +24°C° 0.9 mm 2 mps 718 mmHg 93%
    03:00 +24°C° 0.1 mm 2 mps 718 mmHg 93%
    04:00 +23°C° 0.1 mm 2 mps 718 mmHg 94%
    05:00 +23°C° 0.1 mm 2 mps 717 mmHg 94%
    06:00 +24°C° 0 mm 2 mps 718 mmHg 91%
    07:00 +25°C° 0 mm 2 mps 718 mmHg 88%
    08:00 +26°C° 0 mm 3 mps 718 mmHg 85%
    09:00 +28°C° 0 mm 4 mps 718 mmHg 75%
    10:00 +30°C° 0 mm 4 mps 718 mmHg 65%
    11:00 +33°C° 0 mm 5 mps 718 mmHg 55%
    12:00 +34°C° 0 mm 6 mps 717 mmHg 53%
    13:00 +35°C° 0 mm 6 mps 716 mmHg 50%
    14:00 +36°C° 0 mm 6 mps 715 mmHg 48%
    15:00 +35°C° 0.2 mm 6 mps 715 mmHg 51%
    16:00 +34°C° 0.2 mm 6 mps 714 mmHg 55%
    17:00 +34°C° 0.2 mm 6 mps 714 mmHg 58%
    18:00 +32°C° 0.4 mm 5 mps 714 mmHg 66%
    19:00 +29°C° 0.4 mm 4 mps 715 mmHg 74%
    20:00 +27°C° 0.4 mm 4 mps 715 mmHg 83%
    21:00 +26°C° 0.1 mm 4 mps 715 mmHg 83%
    22:00 +26°C° 0.1 mm 4 mps 716 mmHg 84%
    23:00 +26°C° 0.1 mm 4 mps 716 mmHg 85%

    30 March, Thursday

    Time Temperature Precipitation Wind Pressure Humidity
    00:00 +26°C° 0 mm 4 mps 715 mmHg 85%
    01:00 +25°C° 0 mm 4 mps 715 mmHg 84%
    02:00 +25°C° 0 mm 4 mps 715 mmHg 84%
    03:00 +25°C° 0 mm 3 mps 715 mmHg 84%
    04:00 +24°C° 0 mm 3 mps 715 mmHg 85%
    05:00 +24°C° 0 mm 2 mps 715 mmHg 85%
    06:00 +25°C° 0.8 mm 2 mps 716 mmHg 82%
    07:00 +26°C° 0.8 mm 2 mps 716 mmHg 79%
    08:00 +27°C° 0.8 mm 2 mps 717 mmHg 76%
    09:00 +28°C° 1.3 mm 3 mps 717 mmHg 71%
    10:00 +30°C° 1.3 mm 3 mps 717 mmHg 67%
    11:00 +32°C° 1.3 mm 4 mps 718 mmHg 62%
    12:00 +32°C° 0.8 mm 4 mps 717 mmHg 60%
    13:00 +33°C° 0.8 mm 4 mps 716 mmHg 59%
    14:00 +33°C° 0.8 mm 5 mps 716 mmHg 57%
    15:00 +32°C° 0.9 mm 4 mps 716 mmHg 61%
    16:00 +30°C° 0.9 mm 4 mps 716 mmHg 66%
    17:00 +29°C° 0.9 mm 3 mps 716 mmHg 70%
    18:00 +28°C° 1.2 mm 3 mps 716 mmHg 77%
    19:00 +26°C° 1.2 mm 2 mps 717 mmHg 84%
    20:00 +24°C° 1.2 mm 2 mps 718 mmHg 91%
    21:00 +24°C° 0.4 mm 2 mps 718 mmHg 92%
    22:00 +24°C° 0.4 mm 2 mps 719 mmHg 93%
    23:00 +23°C° 0.4 mm 1 mps 719 mmHg 94%

    31 March, Friday

    Time Temperature Precipitation Wind Pressure Humidity
    00:00 +23°C° 0.8 mm 1 mps 719 mmHg 94%
    01:00 +23°C° 0.8 mm 1 mps 719 mmHg 94%
    02:00 +23°C° 0.8 mm 1 mps 719 mmHg 94%
    03:00 +23°C° 1.1 mm 1 mps 719 mmHg 95%
    04:00 +23°C° 1.1 mm 1 mps 719 mmHg 95%
    05:00 +23°C° 1.1 mm 1 mps 718 mmHg 96%
    06:00 +23°C° 1.6 mm 1 mps 719 mmHg 95%
    07:00 +24°C° 1.6 mm 1 mps 719 mmHg 93%
    08:00 +24°C° 1.6 mm 1 mps 720 mmHg 92%
    09:00 +25°C° 0.5 mm 2 mps 720 mmHg 91%
    10:00 +25°C° 0.5 mm 2 mps 720 mmHg 89%
    11:00 +25°C° 0.5 mm 3 mps 720 mmHg 88%
    12:00 +26°C° 0.3 mm 3 mps 719 mmHg 85%
    13:00 +26°C° 0.3 mm 3 mps 719 mmHg 82%
    14:00 +27°C° 0.3 mm 4 mps 718 mmHg 80%
    15:00 +27°C° 0.2 mm 4 mps 718 mmHg 80%
    16:00 +26°C° 0.2 mm 4 mps 718 mmHg 81%
    17:00 +26°C° 0.2 mm 3 mps 718 mmHg 82%
    18:00 +25°C° 0.3 mm 3 mps 719 mmHg 86%
    19:00 +25°C° 0.3 mm 2 mps 719 mmHg 90%
    20:00 +24°C° 0.3 mm 2 mps 720 mmHg 94%
    21:00 +24°C° 0.4 mm 2 mps 720 mmHg 95%
    22:00 +24°C° 0.4 mm 2 mps 720 mmHg 96%
    23:00 +23°C° 0.4 mm 1 mps 721 mmHg 96%

    1 April, Saturday

    Time Temperature Precipitation Wind Pressure Humidity
    00:00 +23°C° 0.8 mm 1 mps 721 mmHg 97%
    01:00 +23°C° 0.8 mm 1 mps 720 mmHg 97%
    02:00 +23°C° 0.8 mm 1 mps 720 mmHg 97%
    03:00 +23°C° 1.8 mm 1 mps 720 mmHg 97%
    04:00 +23°C° 1.8 mm 1 mps 720 mmHg 97%
    05:00 +23°C° 1.8 mm 1 mps 720 mmHg 97%
    06:00 +23°C° 2.2 mm 1 mps 720 mmHg 96%
    07:00 +23°C° 2.2 mm 2 mps 720 mmHg 96%
    08:00 +24°C° 2.2 mm 2 mps 721 mmHg 95%
    09:00 +24°C° 1.4 mm 2 mps 721 mmHg 95%
    10:00 +24°C° 1.4 mm 2 mps 720 mmHg 95%
    11:00 +24°C° 1.4 mm 3 mps 720 mmHg 95%
    12:00 +24°C° 0.5 mm 3 mps 720 mmHg 91%
    13:00 +25°C° 0.5 mm 3 mps 719 mmHg 87%
    14:00 +26°C° 0.5 mm 4 mps 719 mmHg 83%
    15:00 +26°C° 0.6 mm 3 mps 718 mmHg 86%
    16:00 +25°C° 0.6 mm 3 mps 718 mmHg 89%
    17:00 +25°C° 0.6 mm 3 mps 717 mmHg 92%
    18:00 +24°C° 0.3 mm 3 mps 718 mmHg 94%
    19:00 +24°C° 0.3 mm 3 mps 718 mmHg 95%
    20:00 +23°C° 0.3 mm 2 mps 718 mmHg 96%
    21:00 +23°C° 0.3 mm 2 mps 718 mmHg 96%
    22:00 +23°C° 0.3 mm 2 mps 718 mmHg 96%
    23:00 +23°C° 0.3 mm 2 mps 718 mmHg 96%
    Show more